{"data":{"norad_id":53063,"intl_designator":"2022-077W","name":"STARLINK-4307","alt_names":[],"object_type":"PAYLOAD","status":"ACTIVE","operator":null,"country":"US","launch_date":"2022-07-11","launch_site_code":"AFWTR","launch_vehicle":null,"mission":null,"orbit_class":"UNKNOWN","rcs_meters":null,"size_class":null,"mass_kg":null,"dimensions":null,"purposes":["comms"],"wikipedia_slug":null,"has_3d_model":false,"image_url":null,"decayed_at":null,"tle_current":{"epoch":"2026-09-19T21:55:35.425344Z","epoch_age_seconds":120105,"freshness":"FRESH","line1":"1 53063U 22077W   26262.91360446  .00000270  00000+0  10689-4 0  9992","line2":"2 53063  97.2848  78.6004 0001364  18.4339 341.6953 15.33433420101847","mean_motion":15.3343342,"eccentricity":0.0001364,"inclination_deg":97.2848,"raan_deg":78.6004,"arg_perigee_deg":18.4339,"mean_anomaly_deg":341.6953,"bstar":1.0689e-5,"rev_number":10184,"period_min":93.906913806535,"perigee_km":464.64414595238,"apogee_km":466.51111130307,"semimajor_km":6843.7146286277,"source":"CELESTRAK","updated_at":"2026-09-20T09:00:40.153927Z"}}}